[[{"header":{"parameterUnit":"m.s-1","parameterCategory":1,"la1":30.2991,"la2":30.254,"lo1":-89.0895,"lo2":-89.0444,"dy":0.0017,"dx":0.0017,"nx":28,"ny":28,"refTime":"2024-05-24T09:00:00:Z","depth":0,"parameterNumber":2,"parameterNumberName":"U-component_of_WINDS"},"data":[0,0,0,0,0,0,0,0,0,0,0,0,0,0,0,0,0,0,0,0,0,0,0,0,0,0,0,0,0,0,0,0,0,0,0,0,0,0,0,0,0,0,0,0,0,0,0,0,0,0,0,0,0,0,0,0,0,0,1.0222,1.0223,0,1.0245,1.0245,1.0245,1.0246,1.0246,1.0246,1.0245,1.0266,1.0267,1.0268,0,0,0,0,0,0,0,0,0,0,0,0,0,1.0177,1.0178,1.0222,1.0223,1.0223,1.0245,1.0245,1.0245,1.0246,1.0246,1.0246,1.0245,1.0266,1.0267,1.0268,0,0,0,0,0,0,0,0,0,0,0,0,0,1.0198,1.0179,1.0222,1.0226,1.0227,1.0245,1.0245,1.0245,1.0246,1.0246,1.0245,1.0245,1.0266,1.0267,1.0268,1.0283,0,0,1.0272,1.0272,0,0,0,0,0,0,0,0,1.0197,1.02,1.0225,1.0226,1.0226,1.0242,1.0237,1.0258,1.0246,1.0239,1.0245,1.0245,1.0259,1.026,1.0265,1.0284,1.0285,1.0272,1.0273,1.0273,1.0273,0,0,0,0,0,0,0,1.0195,1.0199,1.0231,1.0226,1.0226,1.0226,1.0228,1.0241,1.025,1.0239,1.0239,1.0242,1.0259,1.0264,1.0266,1.0286,1.0272,1.0273,1.0274,1.0274,1.0316,1.0317,0,0,0,0,0,0,1.0194,1.0198,1.023,1.0232,1.021,1.0227,1.0229,1.0238,1.025,1.0252,1.0243,1.0242,1.0262,1.0264,1.0267,1.0284,1.0273,1.0274,1.0275,1.0316,1.0316,1.0317,0,0,0,0,0,0,1.0193,1.0197,1.023,1.0215,1.0219,1.0228,1.0237,1.0238,1.0244,1.0253,1.0254,1.0246,1.0262,1.0265,1.0279,1.0285,1.0275,1.0276,1.0315,1.0316,1.0317,1.032,0,0,0,0,0,0,1.0191,1.0196,1.0203,1.0215,1.022,1.0242,1.0237,1.0239,1.0246,1.0246,1.0257,1.0258,1.0262,1.0277,1.028,1.0286,1.0277,1.0315,1.0316,1.0316,1.032,1.0321,1.0322,0,0,0,0,0,1.019,1.0203,1.0203,1.0207,1.0228,1.0243,1.0246,1.025,1.0246,1.0253,1.0258,1.0258,1.0284,1.0279,1.0282,1.0289,1.0315,1.0316,1.0316,1.0319,1.0321,1.0322,0,0,0,0,0,0,1.0192,1.0205,1.0205,1.0223,1.0232,1.0243,1.0251,1.0252,1.0261,1.0261,1.0265,1.0268,1.0281,1.0286,1.028,1.0303,1.0299,1.03,1.03,1.0301,1.0302,1.0301,1.0278,0,0,0,0,0,1.0194,1.0206,1.0216,1.0231,1.0235,1.0242,1.0249,1.0251,1.026,1.0264,1.0271,1.0279,1.0289,1.0295,1.0305,1.032,1.0322,1.0326,1.0328,1.0329,1.033,1.0337,1.0339,1.032,1.032,1.032,0,0,1.0199,1.0208,1.0215,1.0231,1.0238,1.0249,1.0246,1.0257,1.0265,1.0266,1.0279,1.0284,1.0294,1.0308,1.0315,1.0313,1.0335,1.033,1.033,1.0331,1.0338,1.034,1.0342,1.032,1.032,1.032,0,0,1.0214,1.0223,1.0235,1.0242,1.0253,1.0257,1.026,1.0271,1.0274,1.0288,1.0288,1.0297,1.0314,1.032,1.0326,1.0341,1.0341,1.0344,1.035,1.0357,1.0359,1.036,1.0365,1.0367,1.0345,1.0345,1.0345,0,1.022,1.0237,1.0241,1.0253,1.0259,1.026,1.0272,1.0278,1.0292,1.0296,1.0293,1.0314,1.032,1.0335,1.0339,1.0344,1.0346,1.0343,1.0358,1.036,1.0361,1.0365,1.0367,1.0346,1.0346,1.0346,1.0345,0,1.0242,1.0253,1.0262,1.0274,1.0282,1.0293,1.0299,1.0305,1.0307,1.0311,1.0324,1.0332,1.0342,1.0346,1.0348,1.0361,1.0359,1.0358,1.0353,1.0363,1.0367,1.0369,1.0346,1.0346,1.0346,1.0346,0,0,1.026,1.0274,1.0277,1.0282,1.0293,1.0301,1.0312,1.0323,1.0328,1.0337,1.0345,1.0359,1.0357,1.0363,1.0365,1.0371,1.0381,1.0368,1.0369,1.037,1.0396,1.0397,1.0399,1.0381,1.0382,1.0382,1.0395,0,1.0276,1.0296,1.0299,1.0316,1.0326,1.0326,1.0336,1.0343,1.0347,1.0355,1.0359,1.0368,1.0365,1.0369,1.0375,1.0379,1.0387,1.0378,1.0388,1.0389,1.0386,1.0401,1.0403,1.0415,1.0396,1.0397,1.0397,0,1.0297,1.0306,1.0324,1.0332,1.0337,1.0345,1.0354,1.0362,1.037,1.0372,1.0378,1.0379,1.0389,1.0384,1.0397,1.0391,1.0395,1.0398,1.0398,1.0399,1.0393,1.0402,1.0419,1.042,1.04,1.04,1.0399,0,1.0308,1.0324,1.0337,1.0341,1.0351,1.0357,1.0361,1.0368,1.0374,1.0382,1.0385,1.0394,1.0398,1.0404,1.0407,1.0403,1.042,1.0415,1.0421,1.0421,1.0425,1.0425,1.0442,1.0428,1.0428,1.0428,1.0428,0,1.0325,1.0336,1.0341,1.0349,1.0361,1.0364,1.0375,1.0379,1.0385,1.0393,1.0393,1.04,1.0404,1.0411,1.0413,1.0423,1.0425,1.0427,1.0427,1.0426,1.0426,1.0429,1.0428,1.0428,1.0428,1.0428,1.0428,0,1.0339,1.0343,1.0357,1.0365,1.0367,1.0375,1.0382,1.0388,1.0392,1.0401,1.0404,1.0409,1.0417,1.042,1.0431,1.0432,1.0443,1.0443,1.0441,1.0441,1.0447,1.0446,1.0466,1.0469,1.0454,1.0454,1.0454,0,1.0349,1.0358,1.0366,1.0372,1.0376,1.0385,1.039,1.0393,1.0399,1.0407,1.0412,1.0421,1.0428,1.0441,1.0445,1.0453,1.0452,1.0459,1.0454,1.0452,1.0452,1.0451,1.0452,1.046,1.046,1.046,1.046,0,1.0368,1.0369,1.0377,1.0386,1.0392,1.0399,1.0405,1.0409,1.0413,1.0419,1.0428,1.0433,1.0443,1.0451,1.0459,1.0462,1.0461,1.0462,1.0464,1.0463,1.0461,1.0462,1.0443,1.0462,1.0461,1.0461,1.0461,1.0461,1.038,1.0387,1.0394,1.0402,1.0407,1.0413,1.0419,1.0423,1.043,1.0439,1.044,1.0449,1.0455,1.0465,1.0468,1.0475,1.0473,1.0476,1.0476,1.0477,1.0477,1.046,1.0476,1.0476,1.0476,1.0476,1.0476,0,1.0398,1.0402,1.0409,1.0418,1.0425,1.0423,1.043,1.0435,1.0443,1.0449,1.0455,1.0465,1.0472,1.0476,1.0483,1.0487,1.0487,1.0489,1.0489,1.0489,1.0478,1.0476,1.0489,1.0489,1.0489,1.0489,1.0489,1.0489,1.0407,1.0419,1.042,1.0433,1.0437,1.0446,1.045,1.0455,1.0459,1.0469,1.0475,1.0478,1.0482,1.049,1.0496,1.0497,1.0499,1.0501,1.0502,1.0492,1.049,1.0489,1.0487,1.0502,1.0502,1.0512,1.0512,1.0512]},{"header":{"parameterUnit":"m.s-1","parameterCategory":1,"la1":30.2991,"la2":30.254,"lo1":-89.0895,"lo2":-89.0444,"dy":0.0017,"dx":0.0017,"nx":28,"ny":28,"refTime":"2024-05-24T09:00:00:Z","depth":0,"parameterNumber":3,"parameterNumberName":"V-component_of_WINDS"},"data":[0,0,0,0,0,0,0,0,0,0,0,0,0,0,0,0,0,0,0,0,0,0,0,0,0,0,0,0,0,0,0,0,0,0,0,0,0,0,0,0,0,0,0,0,0,0,0,0,0,0,0,0,0,0,0,0,0,0,3.528,3.5281,0,3.539,3.5392,3.5393,3.543,3.543,3.5429,3.5429,3.5538,3.5541,3.5544,0,0,0,0,0,0,0,0,0,0,0,0,0,3.5095,3.5099,3.528,3.5281,3.5282,3.539,3.5392,3.5393,3.543,3.543,3.5429,3.5429,3.5536,3.554,3.5544,0,0,0,0,0,0,0,0,0,0,0,0,0,3.5188,3.51,3.5279,3.5314,3.5318,3.539,3.5392,3.5394,3.543,3.543,3.5429,3.5428,3.5535,3.554,3.5545,3.5589,0,0,3.556,3.5562,0,0,0,0,0,0,0,0,3.5182,3.5194,3.5307,3.5312,3.5317,3.5396,3.5367,3.5459,3.543,3.5388,3.5429,3.5428,3.5491,3.5499,3.5521,3.5594,3.5599,3.5561,3.5564,3.5566,3.5567,0,0,0,0,0,0,0,3.5176,3.519,3.5323,3.5309,3.5315,3.5322,3.5335,3.5384,3.5441,3.5391,3.5394,3.5407,3.5493,3.5516,3.5524,3.56,3.556,3.5565,3.5568,3.557,3.5715,3.5716,0,0,0,0,0,0,3.5164,3.5184,3.532,3.5327,3.5247,3.5326,3.534,3.5371,3.5441,3.5451,3.5408,3.5408,3.5508,3.5518,3.5528,3.5586,3.5566,3.557,3.5573,3.5714,3.5716,3.5717,0,0,0,0,0,0,3.516,3.5176,3.5315,3.5256,3.5275,3.533,3.5365,3.5374,3.5397,3.5453,3.5463,3.5422,3.5508,3.5521,3.5574,3.559,3.5573,3.5577,3.5713,3.5715,3.5716,3.57,0,0,0,0,0,0,3.5155,3.5174,3.5193,3.5257,3.5278,3.5361,3.5366,3.5376,3.5406,3.5408,3.5469,3.5478,3.5509,3.5567,3.5579,3.5596,3.5581,3.5712,3.5714,3.5716,3.5699,3.57,3.5702,0,0,0,0,0,3.5148,3.5183,3.5194,3.521,3.5302,3.5362,3.5374,3.5409,3.5407,3.5426,3.5462,3.5476,3.5586,3.5572,3.5586,3.5605,3.5712,3.5714,3.5715,3.5699,3.57,3.5701,0,0,0,0,0,0,3.5118,3.5192,3.5205,3.5261,3.5305,3.5368,3.5393,3.5409,3.5454,3.5454,3.5494,3.5507,3.5558,3.5586,3.5569,3.5652,3.5649,3.5654,3.5632,3.5633,3.5634,3.5627,3.5585,0,0,0,0,0,3.5118,3.5162,3.5223,3.5267,3.5289,3.5337,3.5364,3.5387,3.5434,3.5452,3.5492,3.5535,3.5579,3.5608,3.5651,3.5703,3.5717,3.5723,3.5724,3.5725,3.5729,3.5759,3.5763,3.5723,3.5723,3.5723,0,0,3.5118,3.5164,3.5189,3.5262,3.5299,3.5342,3.5352,3.5397,3.5429,3.5458,3.5512,3.5542,3.5593,3.5646,3.5671,3.5671,3.5743,3.5727,3.5727,3.5731,3.5761,3.5765,3.5769,3.5724,3.5724,3.5724,0,0,3.5142,3.5181,3.5222,3.5259,3.5315,3.5347,3.5357,3.5417,3.5439,3.5493,3.5517,3.5554,3.5629,3.5665,3.5693,3.5729,3.5744,3.5742,3.5748,3.5777,3.578,3.5783,3.5797,3.5802,3.5745,3.5745,3.5745,0,3.5135,3.5203,3.5241,3.5286,3.5317,3.5347,3.5388,3.5422,3.5488,3.5509,3.5508,3.5604,3.564,3.5702,3.5711,3.5732,3.5744,3.5736,3.5777,3.578,3.5784,3.5798,3.5803,3.5745,3.5745,3.5745,3.5745,0,3.5192,3.5239,3.5265,3.5331,3.5365,3.5408,3.5451,3.548,3.55,3.5532,3.5586,3.5631,3.5684,3.57,3.5719,3.5765,3.5764,3.5769,3.5768,3.5786,3.58,3.5806,3.5744,3.5744,3.5744,3.5745,0,0,3.5201,3.5288,3.5297,3.5328,3.5391,3.5427,3.547,3.5525,3.5549,3.5594,3.5631,3.5694,3.57,3.5731,3.5755,3.578,3.5807,3.5783,3.5785,3.5787,3.5861,3.5858,3.5863,3.5817,3.5818,3.5819,3.5857,0,3.5234,3.5316,3.5351,3.5416,3.5459,3.5487,3.5525,3.5567,3.5597,3.5637,3.5669,3.5714,3.5718,3.5737,3.5763,3.5798,3.5823,3.5796,3.5852,3.5854,3.5841,3.587,3.5867,3.5901,3.5863,3.5864,3.5864,0,3.5284,3.5331,3.5401,3.546,3.5479,3.5513,3.5566,3.5603,3.5651,3.5671,3.5707,3.5729,3.5774,3.5769,3.5832,3.5813,3.5837,3.5858,3.586,3.5868,3.5861,3.588,3.5913,3.5918,3.5873,3.5872,3.5871,0,3.5286,3.5365,3.5418,3.5443,3.5513,3.5536,3.5566,3.5613,3.5644,3.5688,3.5709,3.5757,3.5784,3.5821,3.5855,3.5848,3.5915,3.5912,3.5933,3.5932,3.5948,3.5947,3.5986,3.596,3.596,3.596,3.596,0,3.532,3.5362,3.542,3.5452,3.55,3.5538,3.5584,3.5615,3.5657,3.5695,3.5721,3.5756,3.5799,3.5838,3.5865,3.5914,3.5925,3.5942,3.5949,3.5941,3.5939,3.5959,3.5959,3.5962,3.5961,3.5961,3.5961,0,3.5331,3.5371,3.5431,3.5492,3.5508,3.5541,3.5593,3.5624,3.5655,3.5703,3.5716,3.5764,3.5813,3.585,3.5912,3.593,3.5982,3.5989,3.5967,3.5971,3.599,3.5989,3.6045,3.6055,3.6021,3.6021,3.6021,0,3.5351,3.5384,3.5449,3.5478,3.5508,3.5553,3.5584,3.5623,3.5654,3.5712,3.5736,3.5787,3.583,3.5905,3.5945,3.5992,3.6001,3.6018,3.6009,3.6,3.6003,3.6002,3.6006,3.6019,3.6019,3.602,3.602,0,3.5383,3.5402,3.5447,3.5499,3.5537,3.5579,3.5622,3.5643,3.5689,3.5723,3.5774,3.5807,3.5871,3.5921,3.5973,3.6002,3.6019,3.6022,3.603,3.6023,3.601,3.6019,3.5972,3.6021,3.6021,3.6021,3.6021,3.6021,3.5401,3.5432,3.5483,3.5533,3.5569,3.5609,3.5642,3.5677,3.5721,3.5778,3.5797,3.5849,3.5896,3.5968,3.5997,3.6038,3.6038,3.6049,3.6052,3.6055,3.6055,3.6001,3.6047,3.6047,3.6047,3.6047,3.6047,0,3.5435,3.547,3.5515,3.5575,3.5614,3.5627,3.5675,3.5706,3.5753,3.5796,3.5837,3.5895,3.5944,3.5987,3.6037,3.6061,3.607,3.6073,3.6073,3.6079,3.605,3.604,3.6065,3.6065,3.6065,3.6065,3.6065,3.6065,3.5458,3.5513,3.5537,3.5609,3.5642,3.5695,3.5722,3.5758,3.5793,3.5857,3.5898,3.5926,3.5969,3.6022,3.6067,3.6078,3.6096,3.6098,3.6111,3.6084,3.6081,3.6079,3.6069,3.6101,3.6101,3.6137,3.6137,3.6138]}]]